Torna al catalogo

STARLINK-35615

AttivoComunicazioniVLEO
NORAD 66257·PAYLOAD·🇺🇸 United States

Lanciato Oct 29, 2025 da Cape Canaveral Space Force Station

Loading…

Prossimi Passaggi (prossime 24 ore)

TLE

AggiornatoSource: CelesTrak SupGP

Epoca: Sep 15, 2026, 03:36 UTC

1 66257C 25245Z   26258.15048611  .00028155  00000+0  83189-3 0  2583
2 66257  53.1571 122.7870 0001244  84.2508 110.4614 15.34374597    11

Traccia STARLINK-35615 in tempo reale con AllMySat

Download on the App Store